Other Public Products
Issued by NWS Grand Forks, ND

Home | Current Version | Previous Version | Graphics & Text | Print | Product List | Glossary On
Versions: 1 2 3 4 5 6 7 8 9 10 11 12 13 14 15 16 17 18 19 20 21 22 23 24 25 26 27 28 29 30 31 32 33 34 35 36 37 38 39 40 41 42 43 44 45 46 47 48 49 50
000
FPUS83 KFGF 150931
OPUFGF
PRAIRIE TO PINES WEATHER ROUNDUP
NATIONAL WEATHER SERVICE EASTERN NORTH DAKOTA/GRAND FORKS ND
400 AM CDT MON SEP 15 2014

 **SATELLITE DATA USED TO AUGMENT SKY COVER AT AUTOMATED STATIONS**
 *****  WEATHER ACROSS EASTERN NORTH DAKOTA  *****

CITY           SKY/WX    TMP DP  RH WIND       PRES   REMARKS
GRAND FORKS    CLEAR     40  38  93 W5        30.19R
GRAND FORKS AF CLEAR     39  39  99 NW7       30.19S
GRAND CITY NWS   N/A     41 N/A N/A NW3         N/A
BUXTON           N/A     46  45  97 CALM        N/A
DEVILS LAKE    CLEAR     37  30  75 CALM      30.18S
FARGO          CLOUDY    48  43  82 N3        30.18R
WAHPETON ARPT  CLOUDY    41  37  87 NW5       30.19S
$$

 *****  WEATHER ACROSS CENTRAL AND WESTERN NORTH DAKOTA  *****

CITY           SKY/WX    TMP DP  RH WIND       PRES   REMARKS
JAMESTOWN      CLEAR     42  39  89 NW5       30.21R
BISMARCK       CLEAR     34  33  96 CALM      30.24S
MINOT          CLOUDY    45  34  65 SW8       30.20S
MINOT AFB      CLOUDY    43  37  82 SW7       30.19S
GARRISON         N/A     37  34  89 W3        30.21F
WILLISTON      CLEAR     35  32  88 CALM      30.22S
DICKINSON      CLEAR     36  32  85 S7        30.22F
HETTINGER      PTCLDY    41  34  76 S3        30.25S
$$

 *****  OTHER OBSERVATIONS NORTHEAST NORTH DAKOTA  *****

CITY           SKY/WX    TMP DP  RH WIND       PRES   REMARKS
WALHALLA       FAIR      39  39 100 CALM      30.17F
LANGDON        CLOUDY    34  32  93 W5        30.17F
CAVALIER       FAIR      37  36  93 W6        30.17S
GRAFTON        FAIR      37  37 100 W5        30.18S
CANDO          FAIR      32  32 100 W5        30.19F
FORT TOTTEN      N/A     37  36  95 CALM      29.95S
ROLLA          FAIR      36  36 100 W8        30.18F
RUGBY          FAIR      36  36 100 SW5       30.19F
 ***** THE ABOVE OBSERVATIONS ARE NON NWS ARE NOT QUALITY
        CONTROLLED AND MAY MIS-REPORT RAIN FOR SNOW...
$$

 *****  OTHER OBSERVATIONS SOUTHEAST NORTH DAKOTA *****

CITY           SKY/WX    TMP DP  RH WIND       PRES   REMARKS
COOPERSTOWN    NOT AVBL
VALLEY CITY    FAIR      39  39 100 NW9       30.20S
OAKES            N/A     43  43 100 NW3       30.20S
GWINNER        CLOUDY    46  43  87 W5        30.21R
SHEYENNE NWR     N/A     44  43  95 W2        29.95
BUFFALO          N/A     45  42  87 NW2         N/A
WYNDMERE         N/A     45  45 100 W3          N/A
 ***** THE ABOVE OBSERVATIONS ARE NON NWS ARE NOT QUALITY
       CONTROLLED AND MAY MIS-REPORT RAIN FOR SNOW...
$$

  *****  WEATHER ACROSS NORTHERN MINNESOTA  *****

CITY           SKY/WX    TMP DP  RH WIND       PRES   REMARKS
FLAG ISLAND    CLOUDY    45  39  81 W8        30.13S
WARROAD        CLOUDY    39  36  87 W3        30.16R
ROSEAU         CLOUDY    43  37  81 W6        30.16S
HALLOCK        FOG       34  32  93 CALM      30.17F VSB 1
THF RVR FALLS  CLOUDY    41  37  87 CALM      30.18R
HALSTAD          N/A     45  43  91 CALM        N/A
FOSSTON        CLOUDY    39  37  93 CALM      30.18R
BAUDETTE       CLEAR     40  38  93 W5        30.14S
WASKISH        CLEAR     45  41  87 CALM      30.15R
CROOKSTON      MOCLDY    45  41  87 NW5       30.19S
$$
  *****  WEATHER ACROSS CENTRAL AND WEST MINNESOTA  *****

CITY           SKY/WX    TMP DP  RH WIND       PRES   REMARKS
BEMIDJI        MOCLDY    40  39  97 W5        30.15S
PARK RAPIDS    MOCLDY    42  40  92 NW3       30.15S
WADENA         CLOUDY    41  39  93 W3        30.16R
DETROIT LAKES  PTCLDY    45  43  93 CALM      30.18S
MOORHEAD       CLOUDY    46  46 100 CALM      30.19S
FERGUS FALLS   CLOUDY    43  41  93 W3        30.19R
ELBOW LAKE     PTSUNNY   45  42  90 NW5       30.17R
MORRIS MN      CLOUDY    46  45  93 W3        30.17R
STAPLES        CLOUDY    41  39  93 CALM      30.16S
WHEATON        CLOUDY    45  43  93 CALM      30.20S
$$
  *****  WEATHER ELSEWHERE ACROSS MINNESOTA  *****

CITY           SKY/WX    TMP DP  RH WIND       PRES   REMARKS
DULUTH         PTCLDY    43  40  89 NW8       30.10S
INTRNTL FALLS  CLEAR     40  39  97 W6        30.12R
ELY            CLOUDY    45  43  93 W3        30.09S
CLOQUET        CLEAR     41  39  93 W6        30.12R
BRAINERD       PTCLDY    37  36  96 CALM      30.16R
HIBBING        PTCLDY    44  41  89 NW5       30.12S
ALEXANDRIA     MOCLDY    46  42  86 NW5       30.17S
SAINT CLOUD    MOCLDY    48  44  86 W3        30.15S
MINNEAPOLIS    LGT RAIN  53  44  71 N6        30.14S
$$

  *****  WEATHER ACROSS SOUTH DAKOTA  *****

CITY           SKY/WX    TMP DP  RH WIND       PRES   REMARKS
SIOUX FALLS    LGT RAIN  49  47  93 N6        30.18R
BROOKINGS      NOT AVBL
WATERTOWN      RAIN      47  42  83 NW9       30.20R
HURON          CLOUDY    49  44  83 N7        30.21R
SISSETON         N/A     45  43  93 N5        30.18S
ABERDEEN       CLOUDY    45  45 100 CALM      30.21R
MITCHELL       CLOUDY    49  47  93 CALM      30.20S
PIERRE         MOCLDY    45  40  82 N6        30.22S
MOBRIDGE       CLEAR     40  38  93 N7        30.21R
RAPID CITY     CLOUDY    38  34  85 CALM      30.26R
$$

  *****  SOME WEATHER IN NEARBY STATES *****

CITY           SKY/WX    TMP DP  RH WIND       PRES   REMARKS
GLASGOW MT     CLEAR     39  33  79 SE9       30.19S
GREAT FALLS MT CLEAR     47  37  68 S8        30.14F
CHEYENNE WY    PTCLDY    44  42  93 NW7       30.28R
SCOTTSBLUFF NE CLEAR     42  40  92 W3        30.26R
OMAHA NE       CLOUDY    62  58  86 SE7       30.03F
DES MOINES IA  LGT RAIN  60  55  83 SE6       30.07F
DAVENPORT IA   CLOUDY    54  50  86 SE5       30.13F
CHICAGO IL     MOCLDY    52  46  80 CALM      30.15F
EAU CLAIRE WI  CLOUDY    51  47  86 CALM      30.13S
LA CROSSE WI   LGT RAIN  54  48  80 CALM      30.14R
$$

  *****  SOME NATIONAL WEATHER *****

CITY           SKY/WX    TMP DP  RH WIND       PRES   REMARKS
LA GUARDIA NY  CLEAR     56  45  66 N8        30.21R
RALEIGH NC     CLOUDY    63  60  90 CALM      30.22S
ATLANTA GA     FOG       65  64  97 E8        30.19S VSB 1/2
NEW ORLEANS LA PTCLDY    80  75  84 NE3       30.05F
OKLAHOMA CITY  CLOUDY    67  63  87 S7        30.11S
ALBUQUERQUE NM PTCLDY    65  53  65 E5        30.23F
SALT LAKE CITY MOCLDY    67  43  41 SE12      30.04R
LOS ANGELES CA PTCLDY    76  63  64 E3        29.77S
BOISE ID       CLEAR     63  32  31 SE6       29.98R
SEATTLE WA     CLEAR     60  46  59 CALM      29.88S
$$

*** WEATHER ACROSS MANITOBA...SASKATCHEWAN AND ONTARIO ***
                ***ONTARIO***

CITY           SKY/WX    TMP DP  RH WIND       PRES   REMARKS
GERALDTON      PTCLDY    41  41 100 W5        29.99S
THUNDER BAY    PTCLDY    39  39 100 W2        30.06S
SIOUX LOOKOUT  LGT RAIN  45  45 100 NW6       30.06R
TORONTO        PTCLDY    54  45  71 S2        30.19S
BIG TROUT LK   MOCLDY    43  39  87 W8        29.93S
PICKLE LAKE    NOT AVBL
DRYDEN         MOCLDY    45  43  93 W6        30.07S
KENORA         NOT AVBL
$$
                *** MANITOBA***

CITY           SKY/WX    TMP DP  RH WIND       PRES   REMARKS
BRANDON        CLEAR     34  32  93 W5        30.17S
DAUPHIN        MOCLDY    45  37  76 SW10      30.10F
ISLAND LAKE    MOCLDY    46  39  76 CALM      29.93F
PILOT MOUND      N/A     32  30  93 SW6         N/A
THE PAS        CLEAR     41  39  93 W6        29.99S
THOMPSON       PTCLDY    30  30 100 W3        29.90S
WINNIPEG       MOCLDY    43  36  75 W9        30.14F
LYNN LAKE      CLOUDY    39  34  81 MISG      29.85F
CHURCHILL      CLOUDY    37  36  93 NE20      29.83S
GILLAM         PTCLDY    45  41  87 NW6       29.85F
$$
                ***SASKATCHEWAN***

CITY           SKY/WX    TMP DP  RH WIND       PRES   REMARKS
ESTEVAN        MOCLDY    39  36  87 SW7       30.18S
KINDERSLEY     PTCLDY    37  36  93 S8        30.08
LLOYDMINSTER   CLOUDY    45  37  76 SW8       30.02R
PRINCE ALBERT  CLEAR     32  32 100 CALM      30.04F
REGINA         CLEAR     34  32  93 SE6       30.14S


USA.gov is the U.S. government's official web portal to all federal, state and local government web resources and services.